Regional Weather Roundup
Issued by NWS

Home | Current Version | Previous Version | Text Only | Print | Product List | Glossary On
Versions: 1 2 3 4 5 6 7 8 9 10 11 12 13 14 15 16 17 18 19 20 21 22 23 24 25 26 27 28 29 30 31 32 33 34 35 36 37 38 39 40 41 42 43 44 45 46 47 48 49 50
850
ASUS43 KLMK 052110
RWRKY
KENTUCKY REGIONAL WEATHER ROUNDUP
NATIONAL WEATHER SERVICE LOUISVILLE KY
500 PM EDT THU MAY 05 2016

NOTE "FAIR" INDICATES FEW OR NO CLOUDS BELOW 12,000 FEET
WITH NO SIGNIFICANT WEATHER AND/OR OBSTRUCTIONS TO VISIBILITY.

KYZ001>023-026-027-061>063-070>075-052200-
WESTERN AND SOUTH CENTRAL KENTUCKY

CITY           SKY/WX    TMP DP  RH WIND       PRES   REMARKS
PADUCAH        PTSUNNY   63  41  44 N18G24    29.97S
HENDERSON      CLOUDY    57  43  58 N7G17     29.96S
OWENSBORO      CLOUDY    59  46  61 N13       29.95S
HOPKINSVILLE   PTSUNNY   57  42  56 N12       29.95S
BOWLING GREEN  CLOUDY    59  41  51 N12G24    29.91S
GLASGOW        PTSUNNY   58  40  50 N13G18    29.90R
$$

KYZ024-025-028>034-038-045-046-053-052200-
NORTH CENTRAL KENTUCKY

CITY           SKY/WX    TMP DP  RH WIND       PRES   REMARKS
LOUISVILLE/SDF CLOUDY    55  43  63 N13       29.91R
LOUISVILLE/LOU CLOUDY    53  43  68 NW9       29.92R
FORT KNOX      CLOUDY    53  43  67 NW12G20   29.90R
$$

KYZ035>037-039>044-047>052-055>060-089>105-052200-
NORTHEAST KENTUCKY

CITY           SKY/WX    TMP DP  RH WIND       PRES   REMARKS
LEXINGTON      CLOUDY    53  41  63 NW16G24   29.87R
COVINGTON      CLOUDY    54  46  74 W7        29.86F
FRANKFORT      CLOUDY    53  42  66 N14       29.88R
$$

KYZ054-064>069-076>088-106>120-052200-
SOUTHEAST KENTUCKY

CITY           SKY/WX    TMP DP  RH WIND       PRES   REMARKS
JACKSON        CLOUDY    52  38  58 VRB6      29.81S
LONDON         CLOUDY    52  39  61 N9G20     29.85R
SOMERSET       CLOUDY    50  37  62 N10       29.89S
MIDDLESBORO    CLOUDY    54  43  66 NW12G20   29.82R
MONTICELLO     CLOUDY    52  41  66 N21       29.90R
$$





USA.gov is the U.S. government's official web portal to all federal, state and local government web resources and services.